Tracking 29892 objects as of 21-Nov-2024
HD Live streaming from Space Station
objects crossing your sky now

CE-SAT 1

Track CE-SAT 1 now!
10-day predictions


NORAD ID: 42769
Int'l Code: 2017-036E
Perigee: 397.0 km
Apogee: 407.5 km
Inclination: 97.1 °
Period: 92.5 minutes
Semi major axis: 6773 km
RCS: Unknown
Launch date: June 23, 2017
Source: Japan (JPN)
Launch site: SRIHARIKOTA (SRI)
Your satellite tracking list
Your tracking list is empty




NASA's NSSDC Master Catalog

Two Line Element Set (TLE):
1 42769U 17036E   24325.85955089  .00053931  00000-0  73222-3 0  9990
2 42769  97.1119 343.3191 0007744  41.3381 318.8460 15.57430715412627
Source of the keplerian elements: AFSPC